This is the latest recevied weather packets stored in our database for station/object W6JCZ-13. If no packets are shown the sender has not sent any weather packets the latest 10 day(s).
| Time | Temp. | Humidity | Pressure | Rain* | Wind** | Luminosity | Snow |
|---|---|---|---|---|---|---|---|
| 1778133917 | 15.56° C | 84% | 1015.7 hPa | 0 mm | - | - | - |
| 1778133317 | 16.11° C | 83% | 1015.6 hPa | 0 mm | - | - | - |
| 1778132717 | 16.11° C | 83% | 1015.5 hPa | 0 mm | - | - | - |
| 1778132117 | 16.11° C | 83% | 1015.7 hPa | 0 mm | - | - | - |
| 1778131516 | 16.67° C | 82% | 1015.7 hPa | 0 mm | - | - | - |
| 1778130917 | 16.67° C | 81% | 1015.6 hPa | 0 mm | - | - | - |
| 1778130317 | 17.22° C | 81% | 1015.5 hPa | 0 mm | - | - | - |
| 1778129716 | 17.22° C | 80% | 1015.5 hPa | 0 mm | - | - | - |
| 1778129116 | 17.78° C | 79% | 1015.5 hPa | 0 mm | - | - | - |
| 1778128516 | 17.78° C | 79% | 1015.5 hPa | 0 mm | - | - | - |
| 1778127916 | 18.33° C | 78% | 1015.4 hPa | 0 mm | - | - | - |
| 1778127316 | 18.89° C | 77% | 1015.3 hPa | 0 mm | - | - | - |
| 1778126716 | 18.89° C | 75% | 1015.3 hPa | 0 mm | - | - | - |
| 1778126116 | 19.44° C | 75% | 1015.1 hPa | 0 mm | - | - | - |
| 1778125516 | 19.44° C | 74% | 1015.1 hPa | 0 mm | - | - | - |
| 1778124916 | 20° C | 74% | 1014.9 hPa | 0 mm | - | - | - |
| 1778124317 | 20.56° C | 73% | 1015 hPa | 0 mm | - | - | - |
| 1778123716 | 20.56° C | 72% | 1014.9 hPa | 0 mm | - | - | - |
| 1778123116 | 21.11° C | 71% | 1014.8 hPa | 0 mm | - | - | - |
| 1778122516 | 21.67° C | 69% | 1014.8 hPa | 0 mm | - | - | - |
| 1778121917 | 22.22° C | 67% | 1014.8 hPa | 0 mm | - | - | - |
| 1778121316 | 22.78° C | 65% | 1014.8 hPa | 0 mm | - | - | - |
| 1778120716 | 22.78° C | 64% | 1014.8 hPa | 0 mm | - | - | - |
| 1778120116 | 22.78° C | 63% | 1014.8 hPa | 0 mm | - | - | - |
| 1778119516 | 23.33° C | 63% | 1014.8 hPa | 0 mm | - | - | - |
* Rain latest hour (hover to see other rain measurements)
** Current wind speed in m/s (hover to see current wind gust speed)